Tracking 17558 objects as of 9-February-2016
HD Live streaming from Space Station
objects crossing your sky now

SL-3 R/B

Track SL-3 R/B now!
10-day predictions
SL-3 R/B is classified as:


NORAD ID: 11849
Int'l Code: 1980-051B
Perigee: 327.8 km
Apogee: 332.0 km
Inclination: 97.7 °
Period: 91.0 minutes
Semi major axis: 6700 km
RCS: 5.692 m2 (large)
Launch date: June 18, 1980
Source: Commonwealth of Independent States (former USSR) (CIS)
Launch site: TYURATAM MISSILE AND SPACE COMPLEX (TTMTR)

Note: This is a ROCKET BODY
Your satellite tracking list
Your tracking list is empty





NASA's NSSDC Master Catalog

Two Line Element Set (TLE):
1 11849U 80051B   16040.49303268  .00088543  00000-0  41983-3 0  9999
2 11849  97.6910 343.8493 0003169 143.4537 216.6948 15.8271427696966
Source of the keplerian elements: AFSPC

N2YO: 1069